Simultaneous Nadir Overpasses (SNOs) Predictions

Prediction of SNOs between GOES-15 and NPP Satellite Orbit:

Table of predicted SNOs for the next 14.0 days since TLE Epoch: 11/9/2024
Index Date Time (GOES-15) GOES-15 Lat,Lon NPP Lat,Lon Distance(km) Time Diff (sec)
1 11/09/2024 09:10:41 -0.10, 61.52 0.44, 63.80 260.70 80
2 11/10/2024 21:32:29 0.07, 61.50 0.71, 58.53 338.46 80
3 11/11/2024 21:11:02 0.09, 61.52 -0.23, 63.08 176.52 80
4 11/13/2024 09:32:58 -0.06, 61.59 -0.95, 57.78 435.28 80
5 11/14/2024 09:16:52 -0.08, 61.61 0.07, 62.31 80.44 80
6 11/16/2024 21:17:13 0.07, 61.61 0.08, 61.58 3.04 80
7 11/19/2024 09:20:22 -0.06, 61.73 -0.25, 60.83 102.37 80
8 11/20/2024 09:04:15 -0.07, 61.75 0.73, 65.37 412.72 80
9 11/21/2024 21:26:02 0.04, 61.72 0.40, 60.10 184.79 80
10 11/22/2024 21:04:35 0.05, 61.75 -0.59, 64.64 329.51 80
